SPACEBEE-14 (46311 NORAD) Tracking and Keplerian Element Data

This shows tracking and keplerian element data for the satellite.

Feedback or suggestion? Click here.




ElementValue
Catalog46311
NameSPACEBEE-14
Epoch Orbit1379
Epoch Day338.94150152
Epoch Year2020
RAAN50.4319
Inclination97.5113
Eccentricity0.0001103
Argument of Perigee74.6719
Mean Anonmoly285.4633
Mean Motion15.11104932
Decay Rate5.074E-05
L11 46311U 20061AR 20338.94150152 .00005074 00000-0 30671-3 0 9993
L22 46311 97.5113 50.4319 0001103 74.6719 285.4633 15.11104932 13792

Live tracking and technical data element details for SPACEBEE-14 (NORAD 46311). SPACEBEE-14 can be tracked NOW for your location showing map with azimuth and elevation plus other details from your city location.

Track the satellite on the map from your city or location and see movement details for azimuth, elevation, latitude, longitude, range, height, and movement on the map or in text.







IsCatalogInMostPopularTable: catalog: 46311, numindb: 18
Update: records affected: 1



GetName: 46311 SPACEBEE-14

Hit Count: updated at: Sun, 06 Dec 2020 00:46:45 GMT